Weather History for KAPF - February, 2014

Change the Weather History Date:

Saturday, February 8, 2014

  Actual Average Record
Temperature  
Mean Temperature 74 °F 66 °F  
Max Temperature 81 °F 76 °F 86 °F (1959)
Min Temperature 67 °F 56 °F 36 °F (1984)
Degree Days  
Heating Degree Days 0 2  
Month to date heating degree days 0 16  
Since 1 July heating degree days 125 196  
Cooling Degree Days 9 3  
Month to date cooling degree days 85 23  
Year to date cooling degree days 176 109  
Growing Degree Days 23 (Base 50)    
Moisture  
Dew Point 67 °F    
Average Humidity 84    
Maximum Humidity 100    
Minimum Humidity 67    
Precipitation  
Precipitation 0.00 in 0.08 in 1.04 in (1971)
Month to date precipitation T 0.58  
Year to date precipitation 2.39 2.43  
Snow  
Snow 0.00 in - - ()
Month to date snowfall 0.0  
Since 1 July snowfall 0.0  
Snow Depth 0.00 in    
Sea Level Pressure  
Sea Level Pressure 30.07 in    
Wind  
Wind Speed 7 mph (ENE)    
Max Wind Speed 13 mph    
Max Gust Speed 25 mph    
Visibility 6 miles    
Events Fog    
T = Trace of Precipitation, MM = Missing Value Source: NWS Daily Summary

Daily Weather History Graph

Daily Weather History Graph

Search for Another Location

Airport or City:

Trip Planner

Search our weather history database for the weather conditions in past years. The results will help you decide how hot, cold, wet, or windy it might be!

Date:

Astronomy

Feb. 08, 2014 Rise Set
Actual Time 7:07 AM EST 6:15 PM EST
Civil Twilight 6:43 AM EST 6:39 PM EST
Nautical Twilight 6:16 AM EST 7:06 PM EST
Astronomical Twilight 5:49 AM EST 7:33 PM EST
Moon 1:16 PM EST (2/8) 2:11 AM EST (2/8)
Length of Visible Light 11h 55m
Length of Day
11h 07m
Waxing Gibbous, 68% of the Moon is Illuminated
Feb 8
Waxing Gibbous
Feb 14
Full
Feb 22
Last Quarter
Mar 1
New
Mar 8
First Quarter

Hourly Weather History & Observations

Time (EST) Temp. Heat Index Dew Point Humidity Pressure Visibility Wind Dir Wind Speed Gust Speed Precip Events Conditions
12:31 AM 68.0 °F - 66.2 °F 94% 30.10 in 9.0 mi NE 5.8 mph - N/A   Partly Cloudy
12:53 AM 68.0 °F - 66.0 °F 93% 30.09 in 9.0 mi NE 8.1 mph - N/A   Mostly Cloudy
1:01 AM 66.2 °F - 66.2 °F 100% 30.09 in 9.0 mi NE 8.1 mph - N/A   Mostly Cloudy
1:16 AM 66.2 °F - 66.2 °F 100% 30.09 in 9.0 mi ENE 8.1 mph - N/A   Mostly Cloudy
1:53 AM 68.0 °F - 66.0 °F 93% 30.09 in 8.0 mi NE 8.1 mph - N/A   Overcast
2:21 AM 68.0 °F - 66.2 °F 94% 30.09 in 7.0 mi ENE 8.1 mph - N/A   Overcast
2:53 AM 66.9 °F - 66.9 °F 100% 30.08 in 2.5 mi ENE 5.8 mph - N/A   Overcast
3:03 AM 66.2 °F - 66.2 °F 100% 30.08 in 1.8 mi ENE 4.6 mph - N/A   Overcast
3:12 AM 68.0 °F - 66.2 °F 94% 30.08 in 2.0 mi East 5.8 mph - N/A   Overcast
3:36 AM 68.0 °F - 68.0 °F 100% 30.07 in 3.0 mi ENE 6.9 mph - N/A   Overcast
3:53 AM 68.0 °F - 66.9 °F 96% 30.07 in 3.0 mi East 5.8 mph - N/A   Overcast
4:17 AM 68.0 °F - 66.2 °F 94% 30.07 in 2.5 mi East 6.9 mph - N/A   Overcast
4:53 AM 68.0 °F - 66.9 °F 96% 30.07 in 1.5 mi East 5.8 mph - N/A   Overcast
5:31 AM 68.0 °F - 68.0 °F 100% 30.06 in 0.8 mi East 5.8 mph - N/A   Mist
5:53 AM 68.0 °F - 68.0 °F 100% 30.06 in 0.8 mi East 4.6 mph - N/A   Mist
6:53 AM 66.9 °F - 66.9 °F 100% 30.06 in 0.2 mi ESE 8.1 mph - N/A Fog Fog
7:53 AM 66.9 °F - 66.9 °F 100% 30.07 in 0.2 mi ESE 5.8 mph - N/A Fog Fog
8:02 AM 66.2 °F - 66.2 °F 100% 30.08 in 0.8 mi East 5.8 mph - N/A   Mist
8:12 AM 66.2 °F - 66.2 °F 100% 30.08 in 0.5 mi East 5.8 mph - N/A Fog Fog
8:26 AM 66.2 °F - 66.2 °F 100% 30.08 in 0.8 mi East 5.8 mph - N/A   Overcast
8:33 AM 66.2 °F - 66.2 °F 100% 30.09 in 1.5 mi East 5.8 mph - N/A   Overcast
8:40 AM 68.0 °F - 68.0 °F 100% 30.09 in 3.0 mi East 4.6 mph - N/A   Overcast
8:53 AM 68.0 °F - 68.0 °F 100% 30.09 in 2.0 mi Calm Calm - N/A   Overcast
9:00 AM 69.8 °F - 68.0 °F 94% 30.09 in 7.0 mi Calm Calm - N/A   Overcast
9:18 AM 69.8 °F - 68.0 °F 94% 30.10 in 10.0 mi NE 3.5 mph - N/A   Scattered Clouds
9:53 AM 73.9 °F - 68.0 °F 82% 30.11 in 10.0 mi ENE 3.5 mph - N/A   Clear
10:53 AM 78.1 °F - 69.1 °F 74% 30.09 in 10.0 mi SE 8.1 mph - N/A   Partly Cloudy
11:53 AM 80.1 °F 82.7 °F 68.0 °F 67% 30.07 in 10.0 mi SSW 9.2 mph - N/A   Mostly Cloudy
12:26 PM 80.6 °F 83.2 °F 68.0 °F 65% 30.07 in 10.0 mi SW 10.4 mph - N/A   Scattered Clouds
12:53 PM 80.1 °F 82.9 °F 69.1 °F 69% 30.06 in 10.0 mi SSW 9.2 mph - N/A   Scattered Clouds
1:53 PM 77.0 °F - 69.1 °F 76% 30.04 in 10.0 mi West 5.8 mph - N/A   Clear
2:53 PM 78.1 °F - 69.1 °F 74% 30.02 in 10.0 mi Variable 5.8 mph - N/A   Clear
3:53 PM 75.9 °F - 68.0 °F 76% 30.03 in 10.0 mi WNW 9.2 mph - N/A   Clear
4:53 PM 73.9 °F - 68.0 °F 82% 30.04 in 10.0 mi WNW 10.4 mph - N/A   Clear
5:09 PM 73.4 °F - 68.0 °F 83% 30.05 in 10.0 mi NW 10.4 mph 25.3 mph N/A   Mostly Cloudy
5:37 PM 73.4 °F - 68.0 °F 83% 30.05 in 10.0 mi NW 8.1 mph - N/A   Scattered Clouds
5:53 PM 73.0 °F - 68.0 °F 84% 30.05 in 10.0 mi NW 5.8 mph - N/A   Clear
6:53 PM 71.1 °F - 69.1 °F 93% 30.06 in 10.0 mi NNW 9.2 mph - N/A   Clear
7:53 PM 71.1 °F - 69.1 °F 93% 30.06 in 10.0 mi NNW 4.6 mph - N/A   Clear
8:53 PM 71.1 °F - 68.0 °F 90% 30.07 in 10.0 mi Calm Calm - N/A   Clear
9:30 PM 69.8 °F - 64.4 °F 83% 30.08 in 9.0 mi NNE 9.2 mph - N/A   Mostly Cloudy
9:44 PM 69.8 °F - 64.4 °F 83% 30.08 in 9.0 mi NE 9.2 mph - N/A   Scattered Clouds
9:53 PM 69.1 °F - 64.0 °F 84% 30.08 in 9.0 mi NE 10.4 mph - N/A   Partly Cloudy
10:53 PM 66.9 °F - 63.0 °F 87% 30.07 in 10.0 mi East 6.9 mph - N/A   Clear
11:53 PM 66.9 °F - 63.0 °F 87% 30.06 in 10.0 mi NE 5.8 mph - N/A   Clear